DELTA 1 DEB, 10715

Orbit data source: Space-Track

DELTA 1 DEB, 10715 is space debris in LEO originally from a launch on Thu, 29 Jul 1976 UTC launched from the Air Force Western Test Range (AFWTR). Debris objects in space refer to the collection of defunct objects orbiting the Earth. Examples of debris include non-operational satellites, rocket bodies, and fragments generated from explosions, collisions, or faulty payload assembly.

Loading next visibility...
DELTA 1 DEB details
Identifier
10715, 1976-077AL
Orbit
LEO
Last TLE update16 hours ago
Origin
Flag of USGSFC (US)
ManufacturerUnknown
MissionSpacecraft
Bus & MotorUnknown
MassUnknown
Launch date (UTC)
1976-07-29 (48 years ago)
Launch vehicleUnknown
Launch site
Air Force Western Test Range (AFWTR)
Object type
Payload
Rocket body
Debris
Shape & HBRUnknown
Radar Cross SectionMedium (>0.1 m² and <1 m²)

Expand to show TLE details & history

TLE from 16 hours ago
0 DELTA 1 DEB
1 10715U 76077AL  24360.94513928  .00000107  00000-0  21892-2 0  9999
2 10715 102.4682 170.7195 0433924 357.1512 157.9447 11.63900309 59562
Epoch: 2024-12-25T22:41Z
Definitive object data (Epoch: 2024-12-25T22:41:00.033Z)
Latitude22.56607°
Longitude-79.21389°
Altitude2,181.843 km
Speed6.687 km/s
True Right ascension23h 43m 52s
True Declination22° 27' 53"
Sunlit
Object was in daylight at TLE epoch
Visualization TLE readout
Latitude75.44455°
Longitude-25.91408°
Altitude1,916.119 km
Speed6.916 km/s
Apparent Right ascension02h 31m 07s
Apparent Declination29° 35' 41"
Sunlit
Object is in daylight
Visualization observer readout
Local Sidereal Time14:11:37
Azimuth355.482° N
Elevation-20.342°
Doppler factor1
Orbital elements
Apogee altitude2,201.139 km
Perigee altitude1,487.553 km
Semi-major axis8,222.483 km
Eccentricity0.0433924
Inclination102.4682°
RAAN170.7195°
Arg. of periapsis357.1512°
True anomaly159.72203°
Mean anomaly157.9447°
Eccentric anomaly158.84207°
Mean motion2.91098 °/min
BSTAR0.0021892
Orbital period123.67 mins
Loading maneuver chart data...
Loading historical data...
Loading historical data...
Loading historical data...
Loading historical data...
Loading historical data...
Loading historical data...
Loading historical data...

DELTA 1 DEB Visibility forecast

Observer location: undefined°, undefined

Span
Click to sort rows by Start time (UTC) header in descending order
Start Az.
Max El. time (UTC)
Max El. Az.
Max El.
End time (UTC)
End Az.
20 mins2024-12-26 23:11:43.595Z35.362° NE2024-12-26 23:20:43.595Z93.976° ESE31.339°2024-12-26 23:31:43.595Z162.046° S
21 mins2024-12-27 01:12:43.595Z11.521° NNE2024-12-27 01:22:43.595Z287.584° WNW42.016°2024-12-27 01:33:43.595Z218.305° SW
11 mins2024-12-27 03:16:43.595Z345.028° N2024-12-27 03:21:43.595Z314.01° NW17.715°2024-12-27 03:27:43.595Z280.753° WNW
10 mins2024-12-27 09:04:43.595Z78.495° E2024-12-27 09:08:43.595Z48.614° ENE18.166°2024-12-27 09:14:43.595Z7.11° NNE
16 mins2024-12-27 11:01:43.595Z152.229° SSE2024-12-27 11:08:43.595Z64.776° ENE44.495°2024-12-27 11:17:43.595Z344.168° N
10 mins2024-12-27 13:06:43.595Z234.039° WSW2024-12-27 13:10:43.595Z266.26° W19.089°2024-12-27 13:16:43.595Z310.711° NW
|